Miscellaneous Local Product
Issued by NWS Hastings, NE

Home | Current Version | Previous Version | Graphics & Text | Print | Product List | Glossary On
Versions: 1 2 3 4 5 6 7 8 9 10 11 12 13 14 15 16 17 18 19 20 21 22 23 24 25 26 27 28 29 30 31 32 33 34 35 36 37 38 39 40 41 42 43 44 45 46 47 48 49 50
000
AXUS43 KGID 310502
MISGRI

GID CWA HOURLY WEATHER ROUNDUP
NATIONAL WEATHER SERVICE HASTINGS NE
1200 AM CDT FRI JUL 31 2015

NOTE: "FAIR" INDICATES FEW OR NO CLOUDS BELOW 12,000 FEET WITH NO
SIGNIFICANT WEATHER AND/OR OBSTRUCTIONS TO VISIBILITY.

...SOUTH CENTRAL NEBRASKA...

CITY           SKY/WX    TMP DP  RH WIND       PRES   REMARKS
GRAND ISLAND   CLEAR     71  66  84 S7        30.17F
HASTINGS       PTCLDY    75  67  76 S5        30.17F
KEARNEY        PTCLDY    72  64  78 S3        30.18F
ORD            CLEAR     72  65  78 CALM      30.15F
YORK           PTCLDY    68  64  88 S5        30.17S
AURORA         PTCLDY    72  65  77 S3        30.17F
LEXINGTON      PTCLDY    72  66  82 SE5       30.19S
HOLDREGE       MOCLDY    71  64  78 SE6       30.18F
HEBRON         MOCLDY    73  67  81 S5        30.17S

...NEBRASKA PANHANDLE...

CITY           SKY/WX    TMP DP  RH WIND       PRES   REMARKS
CHADRON        CLEAR     66  51  58 N5        30.22S
ALLIANCE       CLEAR     64  56  75 CALM      30.27S
SCOTTSBLUFF    CLEAR     66  51  58 E7        30.26S
SIDNEY         CLEAR     61  57  87 CALM      30.30F

...WESTERN AND NORTH CENTRAL NEBRASKA...

CITY           SKY/WX    TMP DP  RH WIND       PRES   REMARKS
VALENTINE      CLEAR     62  52  69 SW7       30.20S
AINSWORTH      CLEAR     68  54  59 CALM      30.21S
ONEILL         CLEAR     71  66  84 NE6       30.17R
BROKEN BOW     CLEAR     68  64  87 CALM      30.19F
IMPERIAL       CLEAR     69  60  73 N8        30.24S
NORTH PLATTE   PTCLDY    67  61  81 CALM      30.21S
MCCOOK         MOCLDY    73  63  70 SW5       30.20S

...EASTERN NEBRASKA...

CITY           SKY/WX    TMP DP  RH WIND       PRES   REMARKS
NORFOLK        MOCLDY    73  67  81 E5        30.14S
SO SIOUX CITY  CLEAR     71  67  87 CALM      30.12S
TEKAMAH        PTCLDY    70  69  97 SW5       30.12S
COLUMBUS       CLEAR     75  63  64 SW6       30.13F
ALBION         CLEAR     73  65  77 S6        30.15S
OMAHA EPPLEY   PTCLDY    78  65  63 S3        30.12F
OFFUTT AFB     CLEAR     69  65  86 CALM      30.13S
MILLARD        CLEAR     73  66  76 CALM      30.14S
LINCOLN        CLEAR     73  61  65 CALM      30.15F
NEBRASKA CITY  CLEAR     70  60  71 SW6       30.15S
BEATRICE       PTCLDY    73  63  71 CALM      30.16S
FALLS CITY     CLEAR     72  64  76 S7        30.15S

...NORTHERN KANSAS...

CITY           SKY/WX    TMP DP  RH WIND       PRES   REMARKS
GOODLAND       MOCLDY    72  64  76 S12       30.23S
HILL CITY      CLOUDY    77  67  71 S9        30.20S
NORTON         CLEAR     75  63  64 S7        30.19S
PHILLIPSBURG   CLEAR     77  68  73 CALM      30.17S
SMITH CENTER   CLEAR     73  66  78 SE6       30.18S
HAYS           PTCLDY    72  63  73 S8        30.20S
RUSSELL        CLEAR     71  68  90 S9        30.17F
CONCORDIA      MOCLDY    73  67  81 S9        30.16F
SALINA         CLEAR     72  67  84 S6        30.17S
TOPEKA         CLEAR     69  66  90 CALM      30.17R



USA.gov is the U.S. government's official web portal to all federal, state and local government web resources and services.